Regional Weather Roundup
Issued by NWS Sterling, VA

Home | Current Version | Previous Version | Graphics & Text | Print | Product List | Glossary On
Versions: 1 2 3 4 5 6 7 8 9 10 11 12 13 14 15 16 17 18 19 20 21 22 23 24 25 26 27 28 29 30 31 32 33 34 35 36 37 38 39 40 41 42 43 44 45 46 47 48 49 50
000
ASUS41 KLWX 231610
RWRLWX

REGIONAL WEATHER ROUNDUP
NATIONAL WEATHER SERVICE BALTIMORE MD/WASHINGTON DC
1200 PM EDT SAT MAY 23 2015

Note: "FAIR" indicates few or no clouds below 12,000 feet
with no significant weather and/or obstructions to visibility.
 TC=TEMPERATURE CELSIUS

 * =Non NWS site. Station does not report precipitation (e.g. rain,
    snow, etc.), thunder, or fog.

DCZ001-MDZ009-015-VAZ040>042-051-053>054-231700-
WASHINGTON METRO

CITY           SKY/WX    TMP DP  RH WIND       PRES   REMARKS
WASHINGTON NAT MOSUNNY   68  31  25 CALM      30.47F
DULLES         MOSUNNY   63  30  28 E3        30.47F
ANDREWS AFB    SUNNY     64  30  28 VRB1      30.46S
FT BELVOIR     SUNNY     66  28  24 VRB3      30.47S
QUANTICO       SUNNY     65  31  28 E7        30.48F
COLLEGE PARK*  SUNNY     64  32  29 NW3       30.46F
LEESBURG*      SUNNY     64  34  32 NW5       30.47F
MANASSAS*      SUNNY     64  28  25 CALM      30.47F
GAITHERSBURG*  SUNNY     63  34  34 W3        30.50S

$$

MDZ006>007-011-014-231700-
BALTIMORE METRO

CITY           SKY/WX    TMP DP  RH WIND       PRES   REMARKS
BWI AIRPORT    MOSUNNY   64  28  25 VRB7      30.46S
MD SCIENCE CTR   N/A     65  25  22 MISG      30.46F
MARTIN STATE   MOSUNNY   64  30  27 W9        30.48F
ANNAPOLIS      SUNNY     61  35  37 SE12      30.47S
FORT MEADE*    SUNNY     63  30  29 E3        30.49S

$$

MDZ012-015-019>023-231700-
MARYLAND EASTERN SHORE

CITY           SKY/WX    TMP DP  RH WIND       PRES   REMARKS
OCEAN CITY     SUNNY     60  42  51 E12       30.46S
SALISBURY      SUNNY     65  30  27 NW8       30.46S
BAY BRIDGE AP*   N/A    N/A N/A N/A CALM      30.48S
CAMBRIDGE*     SUNNY     64  30  27 NW5       30.46S
EASTON*        MOSUNNY   64  32  29 CALM      30.50S

$$

MDZ017>025-231700-
SOUTHERN MARYLAND

CITY           SKY/WX    TMP DP  RH WIND       PRES   REMARKS
PATUXENT RIVER MOSUNNY   64  33  31 NE9       30.47S
ST INIGOES     SUNNY     64  33  31 NE10      30.46S
LEONARDTOWN*   SUNNY     63  30  29 E7        30.48F

$$

MDZ003>005-231700-
NORTH CENTRAL MARYLAND

CITY           SKY/WX    TMP DP  RH WIND       PRES   REMARKS
FREDERICK*     SUNNY     64  34  32 CALM      30.49S
HAGERSTOWN APT SUNNY     63  25  23 W6        30.45F
WESTMINSTER*   SUNNY     61  19  20 CALM      30.46S

$$

MDZ501>502-231700-
WESTERN MARYLAND

CITY           SKY/WX    TMP DP  RH WIND       PRES   REMARKS
OAKLAND*       SUNNY     59  32  36 W7        30.46S
CUMBERLAND*    SUNNY     64  30  27 CALM      30.47F

$$

VAZ025>031-231700-
SHENANDOAH VALLEY

CITY           SKY/WX    TMP DP  RH WIND       PRES   REMARKS
WINCHESTER*    SUNNY     66  21  18 CALM      30.46S
FRONT ROYAL*   FAIR      63  37  39 CALM      30.45F
LURAY*         FAIR      68  37  32 E5        30.45F
NEW MARKET*    FAIR      63  32  30 CALM      30.44F
STAUNTON*      MOSUNNY   66  32  28 CALM      30.48S
WAYNESBORO*    FAIR      64  37  37 NE5       30.46S

$$

WVZ021-048>050-054>055-231700-
EASTERN WEST VIRGINIA PANHANDLE

CITY           SKY/WX    TMP DP  RH WIND       PRES   REMARKS
MARTINSBURG    SUNNY     64  26  23 CALM      30.46F
PETERSBURG*    MOSUNNY   67  35  31 E6        30.45F

$$

VAZ036>039-050-231700-
CENTRAL FOOTHILLS

CITY           SKY/WX    TMP DP  RH WIND       PRES   REMARKS
CHARLOTTESVILL SUNNY     66  34  30 SW6       30.46S
CULPEPER*      SUNNY     65  33  30 CALM      30.47F
ORANGE*        SUNNY     66  34  30 CALM      30.48F
GORDONSVILLE*  FAIR      65  35  32 NE5       30.46S
WARRENTON*     FAIR      67  36  31 CALM      30.46F

$$

VAZ055>057-231700-
NORTH AND CENTRAL PIEDMONT

CITY           SKY/WX    TMP DP  RH WIND       PRES   REMARKS
FREDERICKSBRG* SUNNY     68  36  31 N5        30.47S
STAFFORD*      SUNNY     67  29  24 N6        30.51F

$$

NCZ024-NYZ072-PAZ021-071-VAZ022-071-231700-
OTHER REGIONAL OBSERVATIONS

CITY           SKY/WX    TMP DP  RH WIND       PRES   REMARKS
NEW YORK CITY  SUNNY     60  22  23 VRB5      30.44F
PHILADELPHIA   MOSUNNY   61  25  25 VRB7      30.46S
PITTSBURGH     MOSUNNY   63  31  30 SE7       30.43F
ROANOKE        MOSUNNY   67  47  48 VRB5      30.48F
RICHMOND       PTSUNNY   69  33  26 N3        30.47S
RALEIGH        MOSUNNY   72  47  40 VRB6      30.45F

$$

ANZ530>537-231700-
MARINE OBSERVATIONS

STATION/POSITION TIME  TEMP    WIND        PRES
                       AIR SEA DIR/SP/G
                 (UTC) (F)     (DEG/KT/KT) (MB)
THOMAS PT LIGHT  1600   59 65   70/  6/  6 1032.6S
BALT KEY BRIDGE  1500   58     310/  3/  4 1031.7R
LEWISETTA        1500   62 67              1031.5F
SOLOMONS ISLAND  1500      68                N/A
PINEY POINT      1500           20/  5/  7   N/A

$$



USA.gov is the U.S. government's official web portal to all federal, state and local government web resources and services.